Printer-friendly version

IAU Minor Planet Center

Minor Planet Center

MPEC 2005-L06 : 2005 LD

The following Minor Planet Electronic Circular may be linked-to from your own Web pages, but must not otherwise be redistributed electronically.


Read MPEC 2005-L05 Read MPEC 2005-L07


M.P.E.C. 2005-L06                                Issued 2005 June 2, 10:28 UT

     The Minor Planet Electronic Circulars contain information on unusual
         minor planets and routine data on comets.  They are published
   on behalf of Commission 20 of the International Astronomical Union by the
          Minor Planet Center, Smithsonian Astrophysical Observatory,
                          Cambridge, MA 02138, U.S.A.

                  Supported in part by the Brinson Foundation
             Prepared using the Tamkin Foundation Computer Network

                              MPC@CFA.HARVARD.EDU
          URL http://cfa-www.harvard.edu/iau/mpc.html  ISSN 1523-6714

                                    2005 LD

Observations:
     K05L00D* C2005 06 01.25917 15 27 45.21 +10 43 31.7          19.1 R EL006699
     K05L00D  C2005 06 01.27933 15 27 42.11 +10 43 08.9                 EL006699
     K05L00D  C2005 06 01.29947 15 27 39.10 +10 42 47.0                 EL006699
     K05L00D  C2005 06 01.31960 15 27 36.08 +10 42 24.1                 EL006699
     K05L00D  C2005 06 01.84965 15 26 33.08 +10 31 53.1          18.8 V EL006A50
     K05L00D  C2005 06 01.85111 15 26 32.89 +10 31 51.8          19.1 V EL006A50
     K05L00D  C2005 06 01.85257 15 26 32.63 +10 31 48.2          19.1 V EL006A50
     K05L00D  C2005 06 01.85403 15 26 32.41 +10 31 46.6          18.6 V EL006A50
     K05L00D  C2005 06 01.85549 15 26 32.22 +10 31 46.4          18.9 V EL006A50
     K05L00D  C2005 06 01.85650 15 26 32.76 +10 31 47.8          19   R EL006461
     K05L00D  C2005 06 01.85857 15 26 32.38 +10 31 44.6                 EL006461
     K05L00D  C2005 06 01.86067 15 26 32.03 +10 31 41.9                 EL006461
     K05L00D  C2005 06 01.87703 15 26 30.47 +10 31 22.6          19.1 V EL006A13
     K05L00D  C2005 06 01.87955 15 26 30.07 +10 31 19.7          19.3 V EL006A13
     K05L00D  C2005 06 01.88250 15 26 29.64 +10 31 16.1          19.1 V EL006A13
     K05L00D  C2005 06 01.88544 15 26 29.18 +10 31 12.9          19.5 V EL006A13
     K05L00D  C2005 06 02.19641 15 25 50.14 +10 25 06.2          19.0 R EL006G96
     K05L00D  C2005 06 02.19976 15 25 49.54 +10 25 02.4          19.9 R EL006G96
     K05L00D  C2005 06 02.20304 15 25 49.02 +10 24 57.5          19.1 R EL006G96
     K05L00D  C2005 06 02.20637 15 25 48.49 +10 24 53.6          19.9 R EL006G96
     K05L00D  C2005 06 02.22845 15 25 43.49 +10 24 16.7          19.0 R EL006734
     K05L00D  C2005 06 02.22992 15 25 43.24 +10 24 13.9          19.2 R EL006734
     K05L00D  C2005 06 02.23139 15 25 43.04 +10 24 12.3          19.2 R EL006734
     K05L00D  C2005 06 02.23286 15 25 42.80 +10 24 10.5          19.2 R EL006734
     K05L00D  C2005 06 02.23433 15 25 42.51 +10 24 08.8          19.5 R EL006734
     K05L00D 2C2005 06 02.25662 15 25 39.66 +10 23 48.9          17.9 R EL006H06
     K05L00D 2C2005 06 02.26188 15 25 38.88 +10 23 44.0          18.3 R EL006H06
     K05L00D 4C2005 06 02.29759 15 25 38.01 +10 23 14.1                 EL006F65
     K05L00D 4C2005 06 02.30762 15 25 36.37 +10 23 01.6          19.7 R EL006F65
     K05L00D 4C2005 06 02.32263 15 25 33.82 +10 22 42.7          19.4 R EL006F65

Observer details:
461 Szeged University, Piszkesteto Stn. (Konkoly).  Observer K. Sarneczky.
    0.60-m Schmidt + CCD.
699 Lowell Observatory-LONEOS.  Observer B. A. Skiff.  0.59-m LONEOS Schmidt
    + CCD.
734 Farpoint Observatory.  Observer D. Tibbets.  Measurer G. Hug.  0.7-m
    reflector + CCD.
A13 Observatoire Naef, Marly.  Observer P. Kocher.  0.5-m f/3.3 Hypergraph
    + CCD.
A50 Andrushivka Astronomical Observatory.  Observer O. Gerashchenko.  0.6-m
    f/2.0 reflector + CCD.
F65 Haleakala-Faulkes Telescope North.  Observer J. Bedient.  2.0-m
    Ritchey-Chretien + CCD.
G96 Mt. Lemmon Survey.  Observer A. Grauer.  Measurers E. C. Beshore,
    C. M. Casey, E. J. Christensen, G. J. Garradd, A. Grauer, R. E. Hill,
    S. M. Larson, R. H. McNaught.  1.5-m reflector + CCD.
H06 New Mexico Skies Observatory.  Observer R. Hutsebaut.  0.25-m reflector
    + CCD.

Orbital elements:
2005 LD
Epoch 2005 May 30.0 TT = JDT 2453520.5                  MPC
M 333.82695              (2000.0)            P               Q
n   0.51274456     Peri.  219.47007     +0.53907454     +0.82655268
a   1.5459734      Node    83.72638     -0.72571405     +0.55337667
e   0.3738818      Incl.    9.37342     -0.42747838     +0.10288306
P   1.92           H   22.9           G   0.15
From 30 observations 2005 June 1-2.

Ephemeris:
2005 LD                  a,e,i = 1.55, 0.37, 9                   q = 0.9680
Date    TT    R. A. (2000) Decl.     Delta      r     Elong.  Phase     V
2005 05 30    15 31.87   +11 18.1    0.107    1.103   144.2    32.5    19.6
2005 06 04    15 21.55   +09 41.2    0.0822   1.080   141.5    35.8    19.1
2005 06 09    15 04.26   +05 59.8    0.0579   1.059   138.0    39.9    18.4
2005 06 14    14 27.11   -03 26.7    0.0352   1.039   131.7    46.8    17.5
2005 06 19    12 13.54   -32 45.3    0.0193   1.022   107.1    71.9    16.9
2005 06 24    06 49.49   -43 54.2    0.0271   1.007    67.9   110.7    19.3
2005 06 29    05 14.52   -33 54.7    0.0481   0.993    60.0   117.6    21.0
2005 07 04    04 46.40   -28 52.2    0.0715   0.983    60.0   116.4    21.7
2005 07 09    04 34.33   -25 53.8    0.0953   0.975    61.7   113.4    22.1

Timothy B. Spahr             (C) Copyright 2005 MPC           M.P.E.C. 2005-L06

Read MPEC 2005-L05 Read MPEC 2005-L07


Our Web policy. Index to the CBAT/MPC/ICQ pages.


Valid HTML 4.01!